Date String (YYYY-MM-DD hh:mm:ss) UTC,Instrument flags,absolute air pressure of the measurement (hPa),sample flow rate (lpm),inlet stack bypass flow (lpm),air temperature of the measurement (°C),ambient temperature measured by the external sensor (°C),aerosol sample conditioner tube jacket temperature (°C),OPC LED temperature (°C),internal box temperature (°C),relative humidity of the measurement (%),span deviation,mass concentration of particles derived from Lorenz-Mie calculation of OPC scattering (μg/m³),mass concentration of particles derived from Lorenz-Mie calculation of OPC scattering (μg/m³),mass concentration of particles derived from Lorenz-Mie calculation of OPC scattering (μg/m³)
DateTimeUTC,F1_M11,P_M11,Q1_M11,Q2_M11,T1_M11,T2_M11,T3_M11,T4_M11,T5_M11,U1_M11,ZSPAN_M11,X0_M11,X2_M11,X1_M11
2023-07-08 19:00:00,SystemResetWarning,0830.1,5.00,000.00,030.5,025.6,000.0,038.2,030.6,33.6,0000.5,0013.43,0009.25,0008.48
2023-07-08 19:01:00,SystemResetWarning,0830.0,5.00,000.00,030.5,026.0,000.0,038.3,030.7,33.5,0000.7,0013.79,0009.15,0008.37
2023-07-08 19:02:00,SystemResetWarning,0830.1,5.00,000.00,030.5,026.5,000.0,038.3,030.7,33.1,0000.7,0013.76,0009.11,0008.34
2023-07-08 19:03:00,SystemResetWarning,0830.1,5.00,000.00,030.4,026.8,000.0,038.4,030.8,33.3,0000.3,0013.54,0009.04,0008.31
2023-07-08 19:04:00,SystemResetWarning,0830.1,4.98,000.00,030.5,027.2,000.0,038.4,030.9,33.1,-000.1,0013.35,0008.98,0008.28
2023-07-08 19:05:00,SystemResetWarning,0830.1,4.99,000.00,030.5,027.4,000.0,038.5,031.0,32.9,-000.1,0013.41,0008.90,0008.22
2023-07-08 19:06:00,SystemResetWarning,0830.2,5.01,000.00,030.5,027.7,000.0,038.5,031.0,33.3,-000.1,0013.78,0008.78,0008.15
2023-07-08 19:07:00,SystemResetWarning,0830.2,4.99,000.00,030.5,026.9,000.0,038.4,031.0,33.0,-000.2,0013.70,0008.69,0008.07
2023-07-08 19:08:00,SystemResetWarning,0830.2,5.00,000.00,030.4,025.3,000.0,038.3,030.8,32.8,-000.2,0014.05,0008.58,0007.98
2023-07-08 19:09:00,SystemResetWarning,0830.2,5.00,000.00,030.4,024.8,000.0,038.2,030.6,33.2,-000.6,0014.14,0008.51,0007.93
2023-07-08 19:10:00,SystemResetWarning,0830.3,5.01,000.00,030.2,024.9,000.0,038.2,030.4,33.5,-001.0,0014.25,0008.46,0007.87
2023-07-08 19:11:00,SystemResetWarning,0830.2,5.01,000.00,030.1,025.3,000.0,038.2,030.4,34.3,-001.4,0014.66,0008.41,0007.81
2023-07-08 19:12:00,SystemResetWarning,0830.2,4.99,000.00,030.0,025.8,000.0,038.3,030.5,33.5,-001.7,0014.20,0008.38,0007.77
2023-07-08 19:13:00,SystemResetWarning,0830.2,5.00,000.00,030.0,026.2,000.0,038.3,030.6,33.2,-001.9,0013.92,0008.31,0007.73
2023-07-08 19:14:00,SystemResetWarning,0830.2,5.01,000.00,030.0,026.6,000.0,038.3,030.7,33.8,-001.5,0013.93,0008.27,0007.68
2023-07-08 19:15:00,SystemResetWarning,0830.2,4.98,000.00,030.0,027.0,000.0,038.3,030.7,34.3,-001.1,0014.27,0008.23,0007.61
2023-07-08 19:16:00,SystemResetWarning,0830.2,5.00,000.00,030.0,027.3,000.0,038.3,030.8,34.5,-001.2,0014.25,0008.21,0007.59
2023-07-08 19:17:00,SystemResetWarning,0830.2,5.01,000.00,030.0,027.5,000.0,038.3,030.9,34.6,-001.2,0013.66,0008.20,0007.57
2023-07-08 19:18:00,SystemResetWarning,0830.3,4.99,000.00,030.1,027.7,000.0,038.3,031.0,35.4,-000.8,0013.66,0008.19,0007.57
2023-07-08 19:19:00,SystemResetWarning,0830.2,5.00,000.00,030.3,027.8,000.0,038.3,031.1,34.5,-000.6,0013.17,0008.15,0007.56
2023-07-08 19:20:00,SystemResetWarning,0830.2,5.00,000.00,030.4,026.7,000.0,038.2,031.1,33.8,-000.4,0013.01,0008.12,0007.54
2023-07-08 19:21:00,SystemResetWarning,0830.3,5.01,000.00,030.4,025.1,000.0,038.1,030.8,34.6,-000.4,0013.75,0008.14,0007.52
2023-07-08 19:22:00,SystemResetWarning,0830.3,5.00,000.00,030.3,024.7,000.0,038.0,030.7,34.1,-000.2,0013.30,0008.19,0007.54
2023-07-08 19:23:00,SystemResetWarning,0830.2,4.99,000.00,030.2,024.9,000.0,038.1,030.4,35.0,-000.2,0013.29,0008.18,0007.55
2023-07-08 19:24:00,SystemResetWarning,0830.2,5.01,000.00,030.2,025.4,000.0,038.1,030.5,34.5,-000.1,0013.31,0008.16,0007.52
2023-07-08 19:25:00,SystemResetWarning,0830.2,4.98,000.00,030.2,025.8,000.0,038.2,030.6,34.8,-000.2,0013.48,0008.11,0007.47
2023-07-08 19:26:00,SystemResetWarning,0830.2,5.03,000.00,030.3,026.3,000.0,038.2,030.7,34.6,-000.6,0013.40,0008.10,0007.46
2023-07-08 19:27:00,SystemResetWarning,0830.2,4.96,000.00,030.4,026.7,000.0,038.2,030.8,34.4,-000.7,0012.88,0008.06,0007.43
2023-07-08 19:28:00,SystemResetWarning,0830.1,5.02,000.00,030.5,027.0,000.0,038.3,030.9,34.0,-000.6,0012.77,0008.05,0007.42
2023-07-08 19:29:00,SystemResetWarning,0830.1,5.00,000.00,030.5,027.3,000.0,038.3,031.0,34.1,-000.8,0013.28,0008.04,0007.37
2023-07-08 19:30:00,SystemResetWarning,0830.0,4.98,000.00,030.5,027.6,000.0,038.4,031.0,34.0,-001.0,0013.16,0007.98,0007.33
2023-07-08 19:31:00,SystemResetWarning,0830.0,5.01,000.00,030.6,027.8,000.0,038.4,031.1,33.6,-000.6,0013.26,0007.98,0007.28
2023-07-08 19:32:00,SystemResetWarning,0830.0,5.01,000.00,030.6,027.7,000.0,038.5,031.1,33.7,-000.5,0012.51,0007.90,0007.23
2023-07-08 19:33:00,SystemResetWarning,0830.0,4.97,000.00,030.6,026.3,000.0,038.4,031.0,33.3,-000.6,0012.28,0007.83,0007.18
2023-07-08 19:34:00,SystemResetWarning,0829.9,5.01,000.00,030.5,025.0,000.0,038.3,030.8,33.9,-000.5,0012.55,0007.77,0007.14
2023-07-08 19:35:00,SystemResetWarning,0830.0,5.01,000.00,030.4,024.8,000.0,038.2,030.6,33.0,-000.8,0012.87,0007.72,0007.10
2023-07-08 19:36:00,SystemResetWarning,0830.0,5.00,000.00,030.3,025.1,000.0,038.3,030.4,34.4,-000.7,0012.84,0007.71,0007.09
2023-07-08 19:37:00,SystemResetWarning,0830.0,4.99,000.00,030.2,025.5,000.0,038.3,030.5,35.0,-000.3,0012.48,0007.68,0007.06
2023-07-08 19:38:00,SystemResetWarning,0830.0,5.00,000.00,030.2,026.0,000.0,038.3,030.6,34.8,-000.7,0012.98,0007.65,0007.03
2023-07-08 19:39:00,SystemResetWarning,0830.0,5.01,000.00,030.4,026.4,000.0,038.3,030.8,34.4,-000.7,0013.19,0007.61,0006.98
2023-07-08 19:40:00,SystemResetWarning,0830.1,4.99,000.00,030.5,026.8,000.0,038.4,030.9,33.7,-001.2,0012.86,0007.56,0006.96
2023-07-08 19:41:00,SystemResetWarning,0830.1,4.99,000.00,030.6,027.1,000.0,038.4,030.9,33.5,-001.4,0012.79,0007.57,0006.95
2023-07-08 19:42:00,SystemResetWarning,0830.2,5.02,000.00,030.6,027.4,000.0,038.4,031.0,33.7,-002.0,0012.71,0007.56,0006.93
2023-07-08 19:43:00,SystemResetWarning,0830.2,4.99,000.00,030.7,027.6,000.0,038.5,031.1,33.7,-002.6,0012.80,0007.56,0006.91
2023-07-08 19:44:00,SystemResetWarning,0830.2,4.98,000.00,030.7,027.8,000.0,038.5,031.1,33.2,-002.8,0012.90,0007.56,0006.90
2023-07-08 19:45:00,SystemResetWarning,0830.2,5.00,000.00,030.7,026.7,000.0,038.4,031.0,33.1,-003.0,0013.18,0007.55,0006.87
2023-07-08 19:46:00,SystemResetWarning,0830.2,5.00,000.00,030.7,025.6,000.0,038.4,030.9,33.1,-002.9,0013.19,0007.57,0006.86
2023-07-08 19:47:00,SystemResetWarning,0830.2,5.00,000.00,030.6,025.5,000.0,038.3,030.7,32.9,-003.0,0013.56,0007.57,0006.82
2023-07-08 19:48:00,SystemResetWarning,0830.2,5.00,000.00,030.4,025.8,000.0,038.4,030.6,33.6,-003.1,0013.60,0007.54,0006.78
2023-07-08 19:49:00,SystemResetWarning,0830.2,5.01,000.00,030.4,026.2,000.0,038.4,030.7,33.7,-002.9,0013.07,0007.49,0006.74
2023-07-08 19:50:00,SystemResetWarning,0830.2,5.01,000.00,030.3,026.5,000.0,038.5,030.8,34.1,-003.0,0012.91,0007.48,0006.72
2023-07-08 19:51:00,SystemResetWarning,0830.2,5.00,000.00,030.3,026.9,000.0,038.5,030.8,34.7,-002.8,0012.75,0007.49,0006.69
2023-07-08 19:52:00,SystemResetWarning,0830.1,5.00,000.00,030.3,027.2,000.0,038.5,030.9,34.3,-002.6,0012.75,0007.49,0006.66
2023-07-08 19:53:00,SystemResetWarning,0830.1,4.99,000.00,030.3,027.5,000.0,038.5,031.0,33.9,-002.3,0012.74,0007.46,0006.64
2023-07-08 19:54:00,SystemResetWarning,0830.1,5.00,000.00,030.3,027.7,000.0,038.5,031.1,34.0,-002.2,0013.43,0007.45,0006.64
2023-07-08 19:55:00,SystemResetWarning,0830.1,5.00,000.00,030.3,027.6,000.0,038.5,031.1,33.7,-002.1,0013.50,0007.46,0006.66
2023-07-08 19:56:00,SystemResetWarning,0830.0,5.00,000.00,030.3,026.1,000.0,038.4,031.0,33.4,-002.2,0013.28,0007.49,0006.67
2023-07-08 19:57:00,SystemResetWarning,0830.1,5.00,000.00,030.2,024.9,000.0,038.2,030.8,33.3,-002.0,0013.60,0007.47,0006.66
2023-07-08 19:58:00,SystemResetWarning,0830.1,5.01,000.00,030.1,024.7,000.0,038.2,030.5,34.0,-001.7,0013.55,0007.43,0006.68
2023-07-08 19:59:00,SystemResetWarning,0830.0,4.99,000.00,030.0,025.0,000.0,038.2,030.4,34.7,-001.4,0013.82,0007.41,0006.69
